| time (UTC) | temp F | wind direction | speed knots | gust knots | rain 1hr in | rain 24hr in | rain mn in | humidity % | barometer mb |
| 20260508060523 | 45 | 308 | 4.3 | 9.6 | 0.00 | 0.01 | 0.00 | 53 | 1005.9 |
| 20260508060022 | 45 | 336 | 5.2 | 9.6 | 0.00 | 0.02 | 0.00 | 53 | 1005.9 |
| 20260508055521 | 45 | 341 | 3.5 | 8.7 | 0.00 | 0.02 | 0.00 | 54 | 1006.1 |
| 20260508055020 | 45 | 355 | 4.3 | 8.7 | 0.00 | 0.02 | 0.00 | 54 | 1006.1 |
| 20260508054519 | 45 | 351 | 4.3 | 8.7 | 0.00 | 0.02 | 0.00 | 54 | 1006.1 |
| 20260508054019 | 45 | 306 | 1.7 | 4.3 | 0.00 | 0.02 | 0.00 | 55 | 1006.2 |
| 20260508053517 | 45 | 307 | 1.7 | 7.0 | 0.00 | 0.02 | 0.00 | 55 | 1006.2 |
| 20260508053020 | 45 | 327 | 1.7 | 7.8 | 0.00 | 0.02 | 0.00 | 54 | 1006.2 |
| 20260508052516 | 44 | 325 | 3.5 | 7.8 | 0.00 | 0.02 | 0.00 | 54 | 1006.3 |
| 20260508052017 | 44 | 279 | 1.7 | 3.5 | 0.00 | 0.02 | 0.00 | 55 | 1006.3 |
| 20260508051514 | 45 | 286 | 1.7 | 4.3 | 0.00 | 0.02 | 0.00 | 56 | 1006.5 |
| 20260508050512 | 45 | 308 | 0.0 | 3.5 | 0.00 | 0.02 | 0.00 | 55 | 1006.7 |
| 20260508050011 | 45 | 308 | 1.7 | 5.2 | 0.00 | 0.10 | 0.00 | 55 | 1006.6 |
| 20260508045512 | 45 | 309 | 2.6 | 5.2 | 0.00 | 0.10 | 0.00 | 54 | 1006.7 |
| 20260508045010 | 45 | 327 | 1.7 | 4.3 | 0.00 | 0.10 | 0.00 | 54 | 1006.7 |
| 20260508044510 | 45 | 318 | 2.6 | 4.3 | 0.00 | 0.10 | 0.00 | 54 | 1006.6 |
| 20260508044008 | 45 | 313 | 0.9 | 3.5 | 0.00 | 0.10 | 0.00 | 53 | 1006.6 |
| 20260508043507 | 46 | 311 | 0.9 | 2.6 | 0.00 | 0.10 | 0.00 | 53 | 1006.7 |
| 20260508043007 | 46 | 308 | 0.0 | 2.6 | 0.00 | 0.10 | 0.00 | 52 | 1006.8 |
| 20260508042506 | 46 | 308 | 0.9 | 2.6 | 0.00 | 0.10 | 0.00 | 52 | 1006.7 |
| 20260508042006 | 46 | 306 | 0.0 | 3.5 | 0.00 | 0.10 | 0.00 | 52 | 1006.7 |
| 20260508041505 | 46 | 306 | 0.9 | 3.5 | 0.00 | 0.10 | 0.00 | 52 | 1006.7 |
| 20260508041003 | 47 | 297 | 0.9 | 4.3 | 0.00 | 0.10 | 0.00 | 52 | 1006.7 |
| 20260508040501 | 47 | 321 | 2.6 | 5.2 | 0.00 | 0.10 | 0.00 | 50 | 1006.7 |
| 20260508040001 | 47 | 298 | 0.9 | 5.2 | 0.00 | 0.11 | 0.10 | 51 | 1006.7 |
| 20260508035501 | 47 | 319 | 0.9 | 4.3 | 0.00 | 0.11 | 0.10 | 51 | 1006.7 |
| 20260508035001 | 47 | 312 | 0.9 | 4.3 | 0.00 | 0.11 | 0.10 | 51 | 1006.7 |
| 20260508034502 | 48 | 313 | 0.9 | 4.3 | 0.00 | 0.11 | 0.10 | 51 | 1006.7 |
| 20260508034001 | 48 | 309 | 0.9 | 2.6 | 0.00 | 0.11 | 0.10 | 51 | 1006.8 |
| 20260508033600 | 48 | 309 | 0.9 | 3.5 | 0.00 | 0.11 | 0.10 | 50 | 1006.8 |
| 20260508033104 | 48 | 328 | 1.7 | 3.5 | 0.00 | 0.11 | 0.10 | 49 | 1006.9 |
| 20260508032603 | 48 | 319 | 0.0 | 4.3 | 0.00 | 0.11 | 0.10 | 48 | 1006.8 |
| 20260508032103 | 48 | 316 | 1.7 | 4.3 | 0.00 | 0.11 | 0.10 | 48 | 1006.8 |
| 20260508031601 | 49 | 311 | 2.6 | 4.3 | 0.00 | 0.11 | 0.10 | 49 | 1006.6 |
| 20260508031101 | 49 | 329 | 0.9 | 3.5 | 0.00 | 0.11 | 0.10 | 49 | 1006.8 |
| 20260508030600 | 49 | 309 | 1.7 | 7.0 | 0.00 | 0.11 | 0.10 | 50 | 1006.9 |
| 20260508030104 | 49 | 308 | 2.6 | 7.0 | 0.00 | 0.12 | 0.10 | 48 | 1006.9 |
| 20260508025601 | 49 | 316 | 1.7 | 3.5 | 0.00 | 0.12 | 0.10 | 49 | 1006.8 |
| 20260508025059 | 50 | 306 | 0.9 | 3.5 | 0.00 | 0.12 | 0.10 | 47 | 1006.8 |
| 20260508024619 | 50 | 329 | 1.7 | 4.3 | 0.00 | 0.12 | 0.10 | 47 | 1006.8 |
| 20260508024058 | 50 | 314 | 1.7 | 7.0 | 0.00 | 0.12 | 0.10 | 47 | 1006.7 |
| 20260508023557 | 50 | 309 | 2.6 | 7.8 | 0.00 | 0.12 | 0.10 | 47 | 1006.5 |
| 20260508023057 | 50 | 324 | 2.6 | 7.0 | 0.00 | 0.12 | 0.10 | 47 | 1006.5 |
| 20260508022601 | 51 | 327 | 2.6 | 7.0 | 0.00 | 0.12 | 0.10 | 46 | 1006.4 |
| 20260508022056 | 51 | 309 | 3.5 | 7.0 | 0.00 | 0.12 | 0.10 | 46 | 1006.4 |
| 20260508021605 | 51 | 292 | 2.6 | 8.7 | 0.00 | 0.12 | 0.10 | 47 | 1006.4 |
| 20260508021055 | 51 | 322 | 3.5 | 13.0 | 0.00 | 0.12 | 0.10 | 46 | 1006.5 |
| 20260508020601 | 51 | 348 | 3.5 | 13.0 | 0.00 | 0.12 | 0.10 | 45 | 1006.4 |
| 20260508020104 | 51 | 24 | 4.3 | 12.2 | 0.00 | 0.14 | 0.10 | 45 | 1006.3 |
| 20260508015555 | 52 | 15 | 3.5 | 8.7 | 0.00 | 0.14 | 0.10 | 47 | 1006.3 |
| 20260508015054 | 52 | 332 | 2.6 | 9.6 | 0.00 | 0.14 | 0.10 | 46 | 1006.2 |
| 20260508014557 | 52 | 329 | 4.3 | 9.6 | 0.00 | 0.14 | 0.10 | 46 | 1006.1 |
| 20260508014054 | 52 | 12 | 5.2 | 10.4 | 0.00 | 0.14 | 0.10 | 45 | 1006.0 |
| 20260508013555 | 52 | 327 | 4.3 | 10.4 | 0.00 | 0.14 | 0.10 | 45 | 1006.1 |
| 20260508013054 | 53 | 336 | 3.5 | 8.7 | 0.00 | 0.14 | 0.10 | 44 | 1006.0 |
| 20260508012623 | 53 | 310 | 3.5 | 8.7 | 0.00 | 0.14 | 0.10 | 45 | 1005.9 |
| 20260508012053 | 53 | 344 | 2.6 | 9.6 | 0.00 | 0.14 | 0.10 | 46 | 1005.8 |
| 20260508011606 | 53 | 11 | 3.5 | 10.4 | 0.00 | 0.14 | 0.10 | 43 | 1005.8 |
| 20260508011052 | 53 | 313 | 3.5 | 10.4 | 0.00 | 0.14 | 0.10 | 43 | 1005.7 |
| 20260508010552 | 53 | 309 | 4.3 | 12.2 | 0.00 | 0.14 | 0.10 | 44 | 1005.7 |
| 20260508010055 | 54 | 308 | 5.2 | 11.3 | 0.00 | 0.15 | 0.10 | 44 | 1005.6 |
| 20260508005555 | 54 | 328 | 3.5 | 8.7 | 0.00 | 0.15 | 0.10 | 44 | 1005.5 |
| 20260508005051 | 54 | 333 | 3.5 | 8.7 | 0.00 | 0.15 | 0.10 | 45 | 1005.5 |
| 20260508004556 | 54 | 345 | 2.6 | 10.4 | 0.00 | 0.15 | 0.10 | 45 | 1005.3 |
| 20260508004051 | 55 | 342 | 4.3 | 10.4 | 0.00 | 0.15 | 0.10 | 43 | 1005.2 |
| 20260508003551 | 55 | 360 | 4.3 | 10.4 | 0.00 | 0.15 | 0.10 | 43 | 1005.0 |
| 20260508003050 | 55 | 349 | 4.3 | 10.4 | 0.00 | 0.15 | 0.10 | 44 | 1004.9 |
| 20260508002551 | 55 | 306 | 1.7 | 7.8 | 0.00 | 0.15 | 0.10 | 43 | 1004.8 |
| 20260508002050 | 56 | 340 | 2.6 | 7.8 | 0.00 | 0.15 | 0.10 | 41 | 1004.6 |
| 20260508001551 | 56 | 308 | 3.5 | 10.4 | 0.00 | 0.15 | 0.10 | 41 | 1004.6 |
| 20260508001050 | 56 | 313 | 3.5 | 10.4 | 0.00 | 0.15 | 0.10 | 39 | 1004.5 |
| 20260508000550 | 56 | 319 | 1.7 | 7.8 | 0.00 | 0.15 | 0.10 | 44 | 1004.6 |
| 20260508000049 | 57 | 331 | 1.7 | 7.0 | 0.00 | 0.15 | 0.10 | 41 | 1004.4 |
| 20260507235549 | 57 | 340 | 1.7 | 7.0 | 0.00 | 0.15 | 0.10 | 41 | 1004.4 |
| 20260507235048 | 57 | 323 | 1.7 | 5.2 | 0.00 | 0.15 | 0.10 | 39 | 1004.4 |
| 20260507234548 | 57 | 315 | 0.9 | 4.3 | 0.00 | 0.15 | 0.10 | 38 | 1004.3 |
| 20260507234048 | 57 | 272 | 0.9 | 3.5 | 0.00 | 0.15 | 0.10 | 37 | 1004.4 |
| 20260507233547 | 57 | 269 | 1.7 | 5.2 | 0.00 | 0.15 | 0.10 | 36 | 1004.3 |
| 20260507233048 | 58 | 271 | 0.9 | 5.2 | 0.00 | 0.15 | 0.10 | 36 | 1004.2 |
| 20260507232548 | 58 | 278 | 1.7 | 6.1 | 0.00 | 0.15 | 0.10 | 35 | 1004.0 |
| 20260507232051 | 58 | 267 | 1.7 | 6.1 | 0.00 | 0.15 | 0.10 | 35 | 1004.1 |
| 20260507231547 | 58 | 266 | 2.6 | 5.2 | 0.00 | 0.15 | 0.10 | 35 | 1004.0 |
| 20260507231047 | 58 | 261 | 0.9 | 7.0 | 0.00 | 0.15 | 0.10 | 35 | 1003.8 |
| 20260507230550 | 58 | 259 | 2.6 | 7.0 | 0.00 | 0.15 | 0.10 | 34 | 1003.7 |
| 20260507230104 | 58 | 278 | 0.9 | 6.1 | 0.00 | 0.15 | 0.10 | 34 | 1003.7 |
| 20260507225546 | 59 | 298 | 1.7 | 8.7 | 0.00 | 0.15 | 0.10 | 33 | 1003.6 |
| 20260507225046 | 59 | 262 | 3.5 | 8.7 | 0.00 | 0.15 | 0.10 | 32 | 1003.5 |
| 20260507224551 | 59 | 277 | 2.6 | 9.6 | 0.00 | 0.15 | 0.10 | 32 | 1003.5 |
| 20260507224045 | 59 | 302 | 3.5 | 9.6 | 0.00 | 0.15 | 0.10 | 32 | 1003.5 |
| 20260507223545 | 60 | 279 | 3.5 | 10.4 | 0.00 | 0.15 | 0.10 | 31 | 1003.5 |
| 20260507223045 | 60 | 304 | 5.2 | 10.4 | 0.00 | 0.15 | 0.10 | 32 | 1003.5 |
| 20260507222545 | 60 | 257 | 4.3 | 8.7 | 0.00 | 0.15 | 0.10 | 33 | 1003.3 |
| 20260507222044 | 60 | 293 | 2.6 | 9.6 | 0.00 | 0.15 | 0.10 | 32 | 1003.4 |
| 20260507221547 | 60 | 46 | 1.7 | 12.2 | 0.00 | 0.15 | 0.10 | 33 | 1003.3 |
| 20260507221044 | 60 | 310 | 4.3 | 12.2 | 0.00 | 0.15 | 0.10 | 34 | 1003.3 |
| 20260507220544 | 60 | 320 | 2.6 | 8.7 | 0.00 | 0.15 | 0.10 | 33 | 1003.2 |
| 20260507220050 | 60 | 322 | 3.5 | 8.7 | 0.00 | 0.21 | 0.10 | 33 | 1003.3 |
| 20260507215544 | 60 | 309 | 3.5 | 8.7 | 0.00 | 0.21 | 0.10 | 34 | 1003.3 |
| 20260507215043 | 61 | 322 | 1.7 | 7.8 | 0.00 | 0.21 | 0.10 | 33 | 1003.2 |
| 20260507214544 | 61 | 277 | 3.5 | 7.8 | 0.00 | 0.21 | 0.10 | 33 | 1003.2 |
| 20260507214043 | 61 | 327 | 3.5 | 10.4 | 0.00 | 0.21 | 0.10 | 34 | 1003.3 |
| 20260507213543 | 61 | 257 | 3.5 | 10.4 | 0.00 | 0.21 | 0.10 | 34 | 1003.2 |
| 20260507213044 | 61 | 317 | 2.6 | 8.7 | 0.00 | 0.21 | 0.10 | 35 | 1003.2 |
| 20260507212542 | 61 | 262 | 3.5 | 14.8 | 0.00 | 0.21 | 0.10 | 33 | 1003.2 |
| 20260507212042 | 61 | 323 | 6.1 | 14.8 | 0.00 | 0.21 | 0.10 | 33 | 1003.1 |
| 20260507211544 | 61 | 295 | 5.2 | 14.8 | 0.00 | 0.21 | 0.10 | 33 | 1003.2 |
| 20260507211041 | 61 | 284 | 2.6 | 11.3 | 0.00 | 0.21 | 0.10 | 34 | 1003.1 |
| 20260507210543 | 61 | 311 | 3.5 | 9.6 | 0.00 | 0.21 | 0.10 | 34 | 1003.1 |
| 20260507210048 | 61 | 286 | 2.6 | 9.6 | 0.00 | 0.25 | 0.10 | 33 | 1003.0 |
| 20260507205541 | 61 | 285 | 3.5 | 8.7 | 0.00 | 0.25 | 0.10 | 35 | 1003.1 |
| 20260507205041 | 61 | 292 | 4.3 | 8.7 | 0.00 | 0.25 | 0.10 | 34 | 1003.1 |
| 20260507204540 | 61 | 264 | 3.5 | 8.7 | 0.00 | 0.25 | 0.10 | 34 | 1003.0 |
| 20260507204042 | 61 | 307 | 3.5 | 9.6 | 0.00 | 0.25 | 0.10 | 34 | 1003.0 |
| 20260507203539 | 61 | 247 | 4.3 | 12.2 | 0.00 | 0.25 | 0.10 | 34 | 1003.0 |
| 20260507203140 | 61 | 328 | 6.1 | 12.2 | 0.00 | 0.25 | 0.10 | 34 | 1003.0 |
| 20260507202542 | 61 | 279 | 2.6 | 11.3 | 0.00 | 0.25 | 0.10 | 34 | 1003.0 |
| 20260507202043 | 61 | 332 | 4.3 | 10.4 | 0.00 | 0.25 | 0.10 | 34 | 1003.0 |
| 20260507201538 | 61 | 355 | 3.5 | 11.3 | 0.00 | 0.25 | 0.10 | 34 | 1003.0 |
| 20260507201039 | 61 | 297 | 5.2 | 11.3 | 0.00 | 0.25 | 0.10 | 34 | 1003.0 |
| 20260507200540 | 61 | 311 | 3.5 | 11.3 | 0.00 | 0.25 | 0.10 | 36 | 1003.2 |
| 20260507200037 | 61 | 293 | 3.5 | 11.3 | 0.00 | 0.31 | 0.10 | 34 | 1003.0 |
| 20260507195542 | 61 | 327 | 4.3 | 12.2 | 0.00 | 0.31 | 0.10 | 34 | 1003.1 |
| 20260507195037 | 61 | 266 | 3.5 | 12.2 | 0.00 | 0.31 | 0.10 | 35 | 1003.0 |
| 20260507194537 | 61 | 300 | 4.3 | 11.3 | 0.00 | 0.31 | 0.10 | 37 | 1003.0 |
| 20260507194035 | 61 | 278 | 5.2 | 12.2 | 0.00 | 0.31 | 0.10 | 35 | 1002.9 |
| 20260507193536 | 61 | 279 | 5.2 | 12.2 | 0.00 | 0.31 | 0.10 | 33 | 1003.2 |
| 20260507193039 | 61 | 252 | 5.2 | 13.0 | 0.00 | 0.31 | 0.10 | 34 | 1003.3 |
| 20260507192535 | 61 | 273 | 5.2 | 12.2 | 0.00 | 0.31 | 0.10 | 35 | 1003.2 |
| 20260507192035 | 61 | 263 | 5.2 | 12.2 | 0.00 | 0.31 | 0.10 | 35 | 1003.3 |
| 20260507191538 | 61 | 247 | 4.3 | 16.5 | 0.00 | 0.31 | 0.10 | 38 | 1003.4 |
| 20260507191033 | 61 | 48 | 7.0 | 16.5 | 0.00 | 0.31 | 0.10 | 39 | 1003.3 |
| 20260507190534 | 61 | 275 | 4.3 | 11.3 | 0.00 | 0.31 | 0.10 | 42 | 1003.2 |
| 20260507190033 | 61 | 262 | 4.3 | 11.3 | 0.00 | 0.31 | 0.10 | 41 | 1003.3 |
| 20260507185532 | 61 | 246 | 3.5 | 11.3 | 0.00 | 0.31 | 0.10 | 43 | 1003.2 |
| 20260507185031 | 61 | 327 | 3.5 | 12.2 | 0.00 | 0.31 | 0.10 | 45 | 1003.3 |
| 20260507184632 | 61 | 261 | 4.3 | 13.9 | 0.00 | 0.31 | 0.10 | 44 | 1003.2 |
| 20260507184032 | 61 | 302 | 7.0 | 13.9 | 0.00 | 0.31 | 0.10 | 46 | 1003.2 |
| 20260507183531 | 61 | 288 | 5.2 | 10.4 | 0.00 | 0.31 | 0.10 | 44 | 1003.3 |
| 20260507183034 | 61 | 254 | 2.6 | 9.6 | 0.00 | 0.31 | 0.10 | 46 | 1003.3 |
| 20260507182531 | 61 | 270 | 4.3 | 8.7 | 0.00 | 0.31 | 0.10 | 46 | 1003.3 |
| 20260507182031 | 60 | 211 | 4.3 | 9.6 | 0.00 | 0.31 | 0.10 | 46 | 1003.3 |
| 20260507181529 | 59 | 223 | 4.3 | 9.6 | 0.00 | 0.31 | 0.10 | 47 | 1003.2 |
| 20260507181028 | 58 | 271 | 4.3 | 9.6 | 0.00 | 0.31 | 0.10 | 52 | 1003.4 |
| 20260507180528 | 58 | 292 | 1.7 | 6.1 | 0.00 | 0.31 | 0.10 | 57 | 1003.5 |
| 20260507180026 | 57 | 261 | 2.6 | 6.1 | 0.00 | 0.31 | 0.10 | 58 | 1003.4 |
| 20260507175529 | 57 | 227 | 1.7 | 7.0 | 0.00 | 0.31 | 0.10 | 61 | 1003.5 |
| 20260507175026 | 56 | 230 | 0.9 | 4.3 | 0.00 | 0.31 | 0.10 | 68 | 1003.6 |
| 20260507174535 | 56 | 137 | 0.9 | 4.3 | 0.00 | 0.31 | 0.10 | 68 | 1003.5 |
| 20260507174029 | 56 | 150 | 0.9 | 7.0 | 0.00 | 0.31 | 0.10 | 67 | 1003.5 |
| 20260507173626 | 56 | 157 | 2.6 | 7.0 | 0.00 | 0.31 | 0.10 | 66 | 1003.6 |
| 20260507173048 | 56 | 192 | 2.6 | 7.0 | 0.00 | 0.31 | 0.10 | 66 | 1003.8 |
| 20260507172526 | 56 | 153 | 0.9 | 8.7 | 0.00 | 0.31 | 0.10 | 67 | 1003.7 |
| 20260507172026 | 56 | 148 | 2.6 | 7.0 | 0.00 | 0.31 | 0.10 | 69 | 1003.8 |
| 20260507171527 | 55 | 172 | 4.3 | 7.0 | 0.00 | 0.31 | 0.10 | 66 | 1004.1 |
| 20260507171025 | 56 | 166 | 2.6 | 7.8 | 0.00 | 0.31 | 0.10 | 65 | 1004.2 |
| 20260507170525 | 56 | 150 | 3.5 | 7.8 | 0.00 | 0.31 | 0.10 | 66 | 1004.2 |
| 20260507170025 | 56 | 90 | 3.5 | 11.3 | 0.00 | 0.31 | 0.10 | 65 | 1004.2 |
| 20260507165523 | 56 | 120 | 2.6 | 11.3 | 0.00 | 0.31 | 0.10 | 64 | 1004.3 |
| 20260507165023 | 57 | 240 | 4.3 | 15.6 | 0.00 | 0.31 | 0.10 | 63 | 1004.2 |
| 20260507164523 | 57 | 174 | 4.3 | 15.6 | 0.00 | 0.31 | 0.10 | 64 | 1004.2 |
| 20260507164024 | 57 | 219 | 5.2 | 9.6 | 0.00 | 0.31 | 0.10 | 66 | 1004.3 |
| 20260507163527 | 57 | 152 | 5.2 | 9.6 | 0.00 | 0.31 | 0.10 | 67 | 1004.3 |
| 20260507163026 | 56 | 161 | 1.7 | 7.8 | 0.00 | 0.31 | 0.10 | 69 | 1004.4 |
| 20260507162528 | 56 | 163 | 4.3 | 9.6 | 0.00 | 0.31 | 0.10 | 68 | 1004.5 |
| 20260507162023 | 57 | 132 | 3.5 | 9.6 | 0.00 | 0.31 | 0.10 | 68 | 1004.5 |
| 20260507161523 | 57 | 175 | 3.5 | 7.0 | 0.00 | 0.31 | 0.10 | 69 | 1004.5 |
| 20260507161023 | 57 | 110 | 1.7 | 6.1 | 0.00 | 0.31 | 0.10 | 68 | 1004.5 |
| 20260507160523 | 57 | 159 | 2.6 | 7.8 | 0.00 | 0.31 | 0.10 | 66 | 1004.7 |
| 20260507160025 | 59 | 150 | 2.6 | 7.8 | 0.00 | 0.31 | 0.10 | 65 | 1004.9 |
| 20260507155525 | 59 | 192 | 1.7 | 7.8 | 0.00 | 0.31 | 0.10 | 66 | 1005.0 |
| 20260507155022 | 60 | 71 | 1.7 | 9.6 | 0.00 | 0.31 | 0.10 | 62 | 1005.0 |
| 20260507154525 | 61 | 157 | 4.3 | 9.6 | 0.00 | 0.31 | 0.10 | 64 | 1005.1 |
| 20260507154021 | 61 | 198 | 4.3 | 9.6 | 0.00 | 0.31 | 0.10 | 62 | 1005.0 |
| 20260507153522 | 62 | 167 | 4.3 | 9.6 | 0.00 | 0.31 | 0.10 | 60 | 1005.0 |
| 20260507153019 | 62 | 231 | 2.6 | 7.0 | 0.00 | 0.31 | 0.10 | 58 | 1005.1 |
| 20260507152518 | 62 | 265 | 1.7 | 5.2 | 0.00 | 0.31 | 0.10 | 55 | 1005.0 |
| 20260507152026 | 61 | 57 | 0.9 | 4.3 | 0.00 | 0.31 | 0.10 | 54 | 1005.0 |
| 20260507151516 | 61 | 297 | 1.7 | 7.0 | 0.00 | 0.31 | 0.10 | 56 | 1005.1 |
| 20260507151014 | 61 | 12 | 0.9 | 7.0 | 0.00 | 0.31 | 0.10 | 54 | 1005.1 |
| 20260507150518 | 60 | 248 | 0.9 | 5.2 | 0.00 | 0.31 | 0.10 | 56 | 1005.2 |
| 20260507150016 | 60 | 242 | 1.7 | 4.3 | 0.00 | 0.31 | 0.10 | 54 | 1005.1 |
| 20260507145511 | 60 | 293 | 1.7 | 7.8 | 0.00 | 0.31 | 0.10 | 57 | 1005.1 |
| 20260507145016 | 59 | 263 | 1.7 | 7.8 | 0.00 | 0.31 | 0.10 | 55 | 1005.3 |
| 20260507144508 | 59 | 245 | 1.7 | 4.3 | 0.00 | 0.31 | 0.10 | 56 | 1005.1 |
| 20260507144007 | 59 | 267 | 1.7 | 6.1 | 0.00 | 0.31 | 0.10 | 57 | 1005.2 |
| 20260507143510 | 59 | 254 | 1.7 | 6.1 | 0.00 | 0.31 | 0.10 | 55 | 1005.3 |
| 20260507143005 | 59 | 339 | 2.6 | 5.2 | 0.00 | 0.31 | 0.10 | 57 | 1005.4 |
| 20260507142503 | 59 | 194 | 2.6 | 7.0 | 0.00 | 0.31 | 0.10 | 61 | 1005.5 |
| 20260507142001 | 58 | 262 | 2.6 | 7.0 | 0.00 | 0.31 | 0.10 | 60 | 1005.5 |
| 20260507141500 | 58 | 337 | 0.9 | 7.8 | 0.00 | 0.31 | 0.10 | 62 | 1005.6 |
| 20260507141100 | 57 | 273 | 1.7 | 7.8 | 0.00 | 0.31 | 0.10 | 61 | 1005.6 |
| 20260507140558 | 57 | 316 | 2.6 | 7.0 | 0.00 | 0.31 | 0.10 | 60 | 1005.7 |
| 20260507140056 | 57 | 268 | 1.7 | 7.0 | 0.00 | 0.31 | 0.10 | 64 | 1005.7 |
| 20260507135600 | 57 | 270 | 2.6 | 7.8 | 0.00 | 0.31 | 0.10 | 63 | 1005.7 |
| 20260507135054 | 57 | 263 | 4.3 | 7.8 | 0.00 | 0.31 | 0.10 | 64 | 1005.7 |
| 20260507134555 | 57 | 327 | 1.7 | 7.8 | 0.00 | 0.31 | 0.10 | 64 | 1005.7 |
| 20260507134051 | 56 | 269 | 1.7 | 7.8 | 0.00 | 0.31 | 0.10 | 64 | 1005.7 |
| 20260507133550 | 56 | 213 | 2.6 | 7.0 | 0.00 | 0.31 | 0.10 | 66 | 1005.7 |
| 20260507133125 | 56 | 268 | 3.5 | 7.0 | 0.00 | 0.31 | 0.10 | 66 | 1005.7 |
| 20260507132546 | 56 | 320 | 1.7 | 7.8 | 0.00 | 0.31 | 0.10 | 67 | 1005.8 |
| 20260507132046 | 56 | 263 | 2.6 | 7.8 | 0.00 | 0.31 | 0.10 | 67 | 1005.9 |
| 20260507131547 | 56 | 307 | 1.7 | 4.3 | 0.00 | 0.31 | 0.10 | 69 | 1005.8 |
| 20260507131043 | 55 | 290 | 1.7 | 7.0 | 0.00 | 0.31 | 0.10 | 69 | 1005.8 |
| 20260507130541 | 55 | 335 | 4.3 | 7.8 | 0.00 | 0.31 | 0.10 | 68 | 1005.8 |
| 20260507130053 | 55 | 296 | 1.7 | 6.1 | 0.00 | 0.31 | 0.10 | 70 | 1005.9 |
| 20260507125540 | 54 | 327 | 1.7 | 5.2 | 0.00 | 0.31 | 0.10 | 69 | 1005.9 |
| 20260507125038 | 54 | 272 | 2.6 | 7.0 | 0.00 | 0.31 | 0.10 | 71 | 1006.0 |
| 20260507124536 | 54 | 327 | 2.6 | 7.0 | 0.00 | 0.31 | 0.10 | 70 | 1006.1 |
| 20260507124035 | 53 | 277 | 1.7 | 7.0 | 0.00 | 0.31 | 0.10 | 71 | 1006.1 |
| 20260507123536 | 53 | 267 | 3.5 | 7.0 | 0.00 | 0.31 | 0.10 | 71 | 1006.2 |
| 20260507123039 | 53 | 301 | 2.6 | 5.2 | 0.00 | 0.31 | 0.10 | 72 | 1006.1 |
| 20260507122532 | 52 | 283 | 2.6 | 8.7 | 0.00 | 0.31 | 0.10 | 71 | 1006.1 |
| 20260507122029 | 52 | 319 | 1.7 | 8.7 | 0.00 | 0.31 | 0.10 | 73 | 1006.1 |
| 20260507121530 | 51 | 327 | 1.7 | 5.2 | 0.00 | 0.31 | 0.10 | 73 | 1006.0 |
| 20260507121029 | 51 | 338 | 2.6 | 7.0 | 0.00 | 0.31 | 0.10 | 75 | 1005.9 |
| 20260507120528 | 51 | 310 | 2.6 | 7.0 | 0.00 | 0.31 | 0.10 | 77 | 1006.0 |
| 20260507120033 | 50 | 327 | 1.7 | 10.4 | 0.00 | 0.31 | 0.10 | 78 | 1006.1 |
| 20260507115528 | 50 | 321 | 4.3 | 10.4 | 0.00 | 0.31 | 0.10 | 78 | 1006.1 |
| 20260507115027 | 49 | 322 | 3.5 | 7.8 | 0.00 | 0.31 | 0.10 | 79 | 1005.9 |
| 20260507114526 | 49 | 346 | 2.6 | 7.0 | 0.00 | 0.31 | 0.10 | 81 | 1006.0 |
| 20260507114026 | 48 | 360 | 3.5 | 7.0 | 0.00 | 0.31 | 0.10 | 80 | 1005.9 |
| 20260507113528 | 48 | 309 | 2.6 | 7.0 | 0.00 | 0.31 | 0.10 | 81 | 1006.0 |
| 20260507113033 | 48 | 284 | 2.6 | 8.7 | 0.00 | 0.31 | 0.10 | 81 | 1005.9 |
| 20260507112526 | 48 | 321 | 3.5 | 7.0 | 0.00 | 0.31 | 0.10 | 82 | 1006.2 |
| 20260507112029 | 48 | 314 | 2.6 | 7.8 | 0.00 | 0.31 | 0.10 | 83 | 1006.1 |
| 20260507111524 | 48 | 309 | 3.5 | 7.8 | 0.00 | 0.31 | 0.10 | 83 | 1006.1 |
| 20260507111025 | 48 | 321 | 2.6 | 7.0 | 0.00 | 0.31 | 0.10 | 84 | 1006.1 |
| 20260507110525 | 48 | 308 | 1.7 | 7.0 | 0.00 | 0.31 | 0.10 | 84 | 1006.2 |
| 20260507110029 | 48 | 323 | 0.9 | 4.3 | 0.00 | 0.31 | 0.10 | 84 | 1006.3 |
| 20260507105523 | 47 | 311 | 1.7 | 5.2 | 0.00 | 0.31 | 0.10 | 84 | 1006.1 |
| 20260507105022 | 47 | 342 | 1.7 | 5.2 | 0.00 | 0.31 | 0.10 | 84 | 1006.0 |
| 20260507104522 | 47 | 317 | 1.7 | 4.3 | 0.00 | 0.31 | 0.10 | 84 | 1006.3 |
| 20260507104022 | 47 | 327 | 0.9 | 5.2 | 0.00 | 0.31 | 0.10 | 83 | 1006.5 |
| 20260507103520 | 47 | 323 | 1.7 | 7.0 | 0.00 | 0.31 | 0.10 | 83 | 1006.3 |
| 20260507103021 | 47 | 317 | 2.6 | 7.8 | 0.00 | 0.31 | 0.10 | 83 | 1006.3 |
| 20260507102519 | 47 | 312 | 3.5 | 7.8 | 0.00 | 0.31 | 0.10 | 84 | 1006.3 |
| 20260507102018 | 47 | 329 | 0.9 | 7.0 | 0.00 | 0.31 | 0.10 | 84 | 1006.5 |
| 20260507101527 | 47 | 332 | 2.6 | 7.0 | 0.00 | 0.31 | 0.10 | 84 | 1006.1 |
| 20260507101117 | 47 | 329 | 3.5 | 7.0 | 0.00 | 0.31 | 0.10 | 84 | 1006.2 |
| 20260507100516 | 47 | 283 | 1.7 | 4.3 | 0.00 | 0.31 | 0.10 | 85 | 1006.2 |
| 20260507100021 | 47 | 309 | 0.9 | 4.3 | 0.00 | 0.31 | 0.10 | 85 | 1006.3 |
| 20260507095516 | 47 | 279 | 1.7 | 7.8 | 0.00 | 0.31 | 0.10 | 85 | 1006.2 |
| 20260507095014 | 47 | 336 | 2.6 | 7.8 | 0.01 | 0.31 | 0.10 | 85 | 1005.8 |
| 20260507094513 | 47 | 341 | 1.7 | 7.0 | 0.01 | 0.31 | 0.10 | 84 | 1005.6 |
| 20260507094020 | 47 | 323 | 2.6 | 7.8 | 0.01 | 0.31 | 0.10 | 84 | 1005.5 |
| 20260507093512 | 47 | 306 | 4.3 | 7.8 | 0.01 | 0.31 | 0.10 | 85 | 1006.0 |
| 20260507093011 | 47 | 306 | 4.3 | 7.8 | 0.01 | 0.31 | 0.10 | 85 | 1005.8 |
| 20260507092511 | 47 | 336 | 3.5 | 7.0 | 0.01 | 0.31 | 0.10 | 85 | 1005.3 |
| 20260507092010 | 47 | 324 | 2.6 | 7.0 | 0.01 | 0.31 | 0.10 | 85 | 1005.1 |
| 20260507091512 | 47 | 355 | 2.6 | 9.6 | 0.01 | 0.31 | 0.10 | 85 | 1005.2 |
| 20260507091009 | 48 | 334 | 4.3 | 9.6 | 0.01 | 0.31 | 0.10 | 85 | 1005.5 |
| 20260507090509 | 48 | 326 | 3.5 | 8.7 | 0.01 | 0.31 | 0.10 | 84 | 1005.7 |
| 20260507090010 | 48 | 292 | 3.5 | 7.8 | 0.01 | 0.31 | 0.10 | 85 | 1005.6 |
| 20260507085506 | 48 | 317 | 3.5 | 9.6 | 0.01 | 0.31 | 0.10 | 84 | 1005.5 |
| 20260507085006 | 48 | 327 | 4.3 | 9.6 | 0.00 | 0.30 | 0.09 | 83 | 1005.5 |
| 20260507084504 | 48 | 326 | 3.5 | 10.4 | 0.00 | 0.30 | 0.09 | 83 | 1006.0 |
| 20260507084004 | 48 | 355 | 6.1 | 10.4 | 0.00 | 0.30 | 0.09 | 84 | 1005.9 |
| 20260507083503 | 48 | 329 | 2.6 | 11.3 | 0.00 | 0.30 | 0.09 | 84 | 1005.7 |
| 20260507083003 | 49 | 301 | 6.1 | 11.3 | 0.00 | 0.30 | 0.09 | 84 | 1005.6 |
| 20260507082502 | 49 | 325 | 5.2 | 10.4 | 0.00 | 0.30 | 0.09 | 85 | 1005.2 |
| 20260507082002 | 49 | 17 | 2.6 | 11.3 | 0.00 | 0.30 | 0.09 | 86 | 1005.0 |
| 20260507081501 | 49 | 300 | 5.2 | 12.2 | 0.00 | 0.30 | 0.09 | 86 | 1005.1 |
| 20260507081104 | 49 | 338 | 3.5 | 12.2 | 0.00 | 0.30 | 0.09 | 87 | 1005.0 |
| 20260507080559 | 49 | 314 | 3.5 | 9.6 | 0.00 | 0.30 | 0.09 | 88 | 1005.4 |
| 20260507080059 | 49 | 295 | 1.7 | 9.6 | 0.00 | 0.30 | 0.09 | 88 | 1005.4 |
| 20260507075557 | 49 | 283 | 3.5 | 9.6 | 0.00 | 0.30 | 0.09 | 89 | 1005.2 |
| 20260507075056 | 49 | 320 | 5.2 | 8.7 | 0.00 | 0.30 | 0.09 | 90 | 1005.2 |
| 20260507074557 | 49 | 321 | 5.2 | 10.4 | 0.00 | 0.30 | 0.09 | 90 | 1005.0 |
| 20260507074054 | 49 | 322 | 4.3 | 9.6 | 0.00 | 0.30 | 0.09 | 92 | 1004.9 |
| 20260507073554 | 49 | 259 | 4.3 | 9.6 | 0.00 | 0.30 | 0.09 | 92 | 1005.0 |
| 20260507073103 | 49 | 342 | 2.6 | 8.7 | 0.00 | 0.30 | 0.09 | 92 | 1005.1 |
| 20260507072553 | 49 | 316 | 3.5 | 8.7 | 0.00 | 0.30 | 0.09 | 93 | 1005.0 |
| 20260507072053 | 49 | 324 | 4.3 | 8.7 | 0.00 | 0.30 | 0.09 | 93 | 1004.7 |
| 20260507071551 | 49 | 284 | 2.6 | 7.8 | 0.00 | 0.30 | 0.09 | 93 | 1004.7 |
| 20260507071051 | 49 | 325 | 3.5 | 7.8 | 0.00 | 0.30 | 0.09 | 94 | 1004.7 |
| 20260507070552 | 49 | 315 | 2.6 | 7.0 | 0.00 | 0.30 | 0.09 | 94 | 1004.9 |
| 20260507070057 | 49 | 312 | 2.6 | 4.3 | 0.00 | 0.30 | 0.09 | 94 | 1004.6 |
| 20260507065549 | 50 | 303 | 1.7 | 4.3 | 0.00 | 0.30 | 0.09 | 94 | 1004.7 |
| 20260507065048 | 50 | 319 | 0.9 | 2.6 | 0.00 | 0.30 | 0.09 | 94 | 1004.8 |
| 20260507064553 | 50 | 319 | 0.0 | 2.6 | 0.00 | 0.30 | 0.09 | 94 | 1004.9 |
| 20260507064047 | 50 | 319 | 0.9 | 3.5 | 0.00 | 0.30 | 0.09 | 94 | 1004.2 |
| 20260507063547 | 50 | 313 | 0.9 | 3.5 | 0.00 | 0.30 | 0.09 | 94 | 1004.2 |
| 20260507063046 | 50 | 303 | 0.0 | 3.5 | 0.00 | 0.30 | 0.09 | 94 | 1004.4 |
| 20260507062546 | 50 | 301 | 0.9 | 3.5 | 0.00 | 0.30 | 0.09 | 94 | 1004.4 |
| 20260507062045 | 50 | 315 | 0.9 | 7.0 | 0.00 | 0.30 | 0.09 | 94 | 1004.0 |
| 20260507061545 | 50 | 329 | 0.9 | 7.0 | 0.00 | 0.30 | 0.09 | 94 | 1003.9 |
| 20260507061044 | 50 | 313 | 1.7 | 7.0 | 0.01 | 0.30 | 0.09 | 94 | 1004.1 |
| 20260507060545 | 50 | 296 | 2.6 | 7.0 | 0.01 | 0.30 | 0.09 | 94 | 1004.0 |